Date,TemperatureHighF,TemperatureAvgF,TemperatureLowF,DewpointHighF,DewpointAvgF,DewpointLowF,HumidityHigh,HumidityAvg,HumidityLow,PressureMaxIn,PressureMinIn,WindSpeedMaxMPH,WindSpeedAvgMPH,GustSpeedMaxMPH,PrecipitationSumIn
2013-1-1,45.2,36.5,28.8,40.3,33.3,26.3,94,88,81,30.22,30.16,4,1,4,0.00
2013-1-2,48.6,39.9,32.9,39.6,34.2,30.3,91,80,67,30.19,30.09,4,1,4,0.00
2013-1-3,48.2,42.2,35.8,41.0,35.6,29.0,87,77,71,30.22,30.09,4,0,4,0.00
2013-1-4,50.0,42.3,34.2,45.0,38.8,31.3,92,87,82,30.24,30.13,3,0,3,0.00
2013-1-5,43.7,40.2,38.0,39.1,36.8,33.3,94,88,81,30.17,30.02,5,1,5,0.35
2013-1-6,46.1,40.3,36.9,43.7,38.3,34.9,95,93,91,30.16,30.02,6,0,6,0.01
2013-1-7,52.2,45.4,38.5,48.9,42.6,36.4,93,90,86,30.23,30.15,4,1,4,0.00
2013-1-8,54.0,47.1,42.5,49.9,44.1,39.2,92,89,85,30.22,30.10,4,1,4,0.00
2013-1-9,46.4,41.2,33.8,44.2,39.3,31.7,94,93,91,30.11,29.95,6,1,6,0.02
2013-1-10,39.1,34.0,32.9,34.2,31.3,29.7,100,90,82,30.14,29.99,121,1,121,14.30
2013-1-11,41.4,35.7,32.6,37.2,32.0,29.1,89,86,83,30.16,30.08,4,1,4,0.00
2013-1-12,40.9,34.9,31.0,34.3,30.2,27.0,89,83,73,30.16,30.06,4,1,4,0.00
2013-1-13,42.1,34.3,28.4,31.4,28.1,24.8,88,78,60,30.18,30.10,3,0,3,0.00
2013-1-14,45.5,36.9,29.2,33.8,28.7,23.3,81,72,60,30.32,30.17,4,1,4,0.00
2013-1-15,51.8,41.1,32.8,40.0,32.9,26.6,81,73,63,30.40,30.31,4,0,4,0.00
2013-1-16,55.4,45.4,37.4,45.1,37.8,31.5,82,75,66,30.35,30.22,3,0,3,0.00
2013-1-17,56.3,45.7,36.5,43.8,37.1,30.3,81,72,57,30.24,30.14,2,0,2,0.00
2013-1-18,56.5,45.7,36.5,43.0,36.3,30.8,82,70,54,30.20,30.13,2,0,2,0.00
2013-1-19,56.2,45.5,36.4,42.0,35.7,30.5,82,69,55,30.22,30.15,2,0,2,0.00
2013-1-20,56.9,45.5,36.4,44.0,35.4,29.7,81,68,52,30.22,30.11,3,0,3,0.00
2013-1-21,57.6,46.1,36.0,42.9,34.4,28.7,79,65,49,30.16,30.06,4,1,4,0.00
2013-1-22,57.6,49.6,41.0,36.3,32.0,28.4,64,51,41,30.09,29.96,4,1,5,0.00
2013-1-23,51.7,47.8,43.9,44.6,37.7,29.2,92,70,43,30.07,29.91,7,2,7,0.29
2013-1-24,54.7,50.1,46.8,50.9,47.5,44.0,94,91,86,30.17,30.05,4,0,4,0.01
2013-1-25,54.7,50.8,48.2,51.5,48.3,45.9,93,91,88,30.17,30.04,3,0,3,0.00
2013-1-26,48.2,43.0,36.4,46.0,40.2,33.3,94,90,83,30.04,29.96,5,1,5,0.00
2013-1-27,44.8,38.1,33.7,39.4,34.0,30.8,89,85,77,30.14,30.03,5,1,5,0.00
2013-1-28,45.5,39.6,34.6,40.0,35.8,32.0,91,86,80,30.29,30.12,8,0,8,0.00
2013-1-29,49.3,42.1,36.4,43.8,38.2,33.5,91,86,80,30.33,30.25,6,2,6,0.00
2013-1-30,57.8,45.5,36.2,47.8,39.7,33.8,92,81,64,30.32,30.23,3,1,3,0.00
2013-1-31,56.5,46.0,36.4,48.0,40.5,32.7,87,81,68,30.26,30.16,3,0,3,0.00
2013-2-1,58.3,47.6,37.8,45.9,40.3,34.6,89,77,56,30.19,30.11,4,0,4,0.00
2013-2-2,53.3,46.3,41.6,46.3,40.4,34.8,91,80,68,30.24,30.17,6,1,6,0.00
2013-2-3,52.9,45.4,40.5,47.4,42.1,37.9,92,88,80,30.21,30.12,5,1,5,0.00
2013-2-4,55.8,45.8,41.0,49.4,42.2,38.3,92,87,78,30.13,30.04,5,1,5,0.00
2013-2-5,48.6,42.3,38.7,45.8,40.1,36.6,94,92,89,30.14,30.02,5,1,5,0.00
2013-2-6,48.4,39.9,32.4,44.7,36.9,30.3,94,89,83,30.15,30.07,4,1,4,0.00
2013-2-7,43.2,38.6,34.9,40.0,36.3,32.8,93,91,87,30.07,29.93,5,1,5,0.22
2013-2-8,45.9,38.0,32.8,40.8,34.5,30.7,93,87,79,30.00,29.89,6,1,6,0.01
2013-2-9,49.9,40.6,33.7,40.7,33.9,28.2,84,77,65,30.06,29.97,5,1,5,0.00
2013-2-10,54.0,43.0,33.8,43.8,36.4,30.1,88,78,65,30.07,30.01,5,1,5,0.00
2013-2-11,56.0,45.4,35.8,45.9,38.4,32.2,88,77,63,30.19,30.07,5,1,5,0.00
2013-2-12,54.7,45.4,37.6,45.9,39.5,33.2,87,80,66,30.31,30.18,5,1,5,0.00
2013-2-13,57.6,44.9,36.2,49.6,40.3,32.9,91,84,72,30.30,30.20,5,0,5,0.00
2013-2-14,65.5,52.4,41.0,52.0,42.2,35.0,86,70,48,30.24,30.15,4,1,4,0.00
2013-2-15,63.0,52.1,42.1,45.6,38.7,32.1,73,61,47,30.26,30.20,4,1,4,0.00
2013-2-16,61.4,50.2,42.1,49.3,40.8,36.1,81,70,60,30.25,30.05,4,1,4,0.00
2013-2-17,55.1,45.4,36.9,43.6,37.2,30.0,81,73,60,30.06,29.96,5,1,5,0.00
2013-2-18,41.9,37.6,32.0,36.5,33.4,0.0,100,85,80,32.60,29.88,6,1,6,14.84
2013-2-19,38.5,35.6,32.8,35.5,32.7,29.7,91,89,87,29.89,29.71,7,1,7,14.84
2013-2-20,47.0,37.9,31.7,39.2,33.4,28.8,90,84,68,30.05,29.82,9,1,9,14.84
2013-2-21,49.3,41.4,34.4,41.2,35.3,30.6,87,79,70,30.15,30.04,6,1,6,14.84
2013-2-22,51.1,42.0,36.5,40.9,34.6,29.7,87,75,64,30.30,30.14,116,1,116,15.03
2013-2-23,48.1,40.7,35.1,38.9,34.0,31.0,89,77,56,30.24,30.14,9,1,9,14.84
2013-2-24,54.7,43.4,35.3,41.5,35.0,29.1,81,73,57,30.24,30.14,6,1,6,14.84
2013-2-25,54.7,44.3,37.8,40.0,35.1,28.1,86,71,39,30.23,30.15,7,2,7,14.84
2013-2-26,58.0,45.1,35.1,43.8,34.0,26.9,76,65,53,30.20,30.14,5,1,5,14.84
2013-2-27,57.1,45.5,36.2,44.0,36.8,29.2,87,72,56,30.33,30.19,7,1,7,14.84
2013-2-28,59.0,50.5,46.3,53.0,46.6,42.3,90,87,78,30.42,30.32,6,1,6,14.84
2013-3-1,62.3,50.9,41.2,55.0,46.1,39.1,94,84,69,30.41,30.23,5,1,5,0.00
2013-3-2,60.5,52.7,47.0,53.1,47.7,43.6,89,83,73,30.24,30.05,4,0,4,14.84
2013-3-3,54.4,49.5,34.2,47.5,45.1,34.2,100,85,73,30.14,30.00,116,1,116,15.03
2013-3-4,54.4,43.7,38.3,49.5,39.8,35.0,91,86,76,30.05,29.95,9,1,9,0.00
2013-3-5,45.0,40.6,34.6,40.6,37.7,32.1,93,89,83,29.96,29.61,10,2,10,0.49
2013-3-6,42.3,38.7,34.7,40.2,36.8,32.9,94,93,92,29.92,29.62,14,2,14,0.32
2013-3-7,48.8,39.4,32.8,43.5,36.1,31.0,94,88,77,29.89,29.80,5,1,5,0.01
2013-3-8,50.8,43.0,36.0,44.0,38.5,32.8,90,84,75,29.96,29.67,7,2,7,0.00
2013-3-9,48.2,38.9,37.6,39.7,35.0,34.4,90,86,69,30.32,29.90,3,1,3,0.00
2013-3-10,63.4,45.0,38.0,49.0,38.4,33.6,86,78,52,30.33,30.25,5,0,5,15.87
2013-3-11,63.7,52.4,43.2,52.0,44.4,38.4,84,75,64,30.26,30.12,6,1,6,0.00
2013-3-12,67.0,56.9,0.0,56.1,48.3,0.0,100,74,64,30.16,30.11,114,2,114,15.87
2013-3-13,70.2,55.8,46.4,56.7,47.7,42.8,89,75,55,30.19,30.10,6,1,6,15.87
2013-3-14,64.1,54.0,48.2,51.5,45.5,43.0,84,73,56,30.19,30.10,6,1,6,15.40
2013-3-15,66.2,54.2,47.3,52.3,45.6,40.5,82,73,56,30.16,30.09,7,1,7,0.00
2013-3-16,61.9,52.5,45.7,49.8,42.5,37.5,77,69,55,30.15,30.07,7,2,7,0.00
2013-3-17,58.7,47.6,40.1,46.4,39.2,35.1,83,73,61,30.15,30.07,6,2,6,15.61
2013-3-18,59.4,48.6,39.1,48.7,41.3,34.5,85,76,62,30.12,30.04,5,1,5,15.61
2013-3-19,51.5,46.4,43.2,46.0,41.0,36.5,90,81,73,30.11,30.02,5,1,5,15.61
2013-3-20,51.1,45.9,40.9,48.9,43.7,38.6,94,92,90,30.12,29.97,5,1,5,15.61
2013-3-21,54.4,42.7,34.9,46.0,38.2,32.8,93,85,64,30.13,30.05,8,2,8,15.61
2013-3-22,53.6,43.6,35.8,40.8,34.6,28.0,83,71,56,30.13,30.08,7,1,7,15.61
2013-3-23,57.6,46.5,37.1,43.9,36.9,30.9,81,70,56,30.12,30.06,7,2,7,15.61
2013-3-24,63.7,49.8,39.8,50.0,40.8,34.5,83,72,55,30.08,29.99,6,1,6,15.61
2013-3-25,51.5,44.5,40.3,43.8,38.5,34.1,89,80,67,30.01,29.93,9,2,9,15.61
2013-3-26,63.4,49.0,39.4,52.1,42.7,36.2,90,80,62,29.97,29.93,7,1,7,15.61
2013-3-27,54.9,49.7,46.8,51.3,45.9,42.0,90,87,80,29.99,29.91,5,1,5,15.61
2013-3-28,47.7,47.0,46.4,45.0,44.3,43.6,91,90,90,30.03,29.98,2,0,2,0.00
2013-3-29,62.6,57.9,55.8,50.7,49.2,48.6,78,73,65,30.07,30.05,6,1,6,0.00
2013-3-30,67.1,54.6,49.3,57.3,49.8,46.5,92,84,70,30.07,29.98,8,2,8,0.01
2013-3-31,61.6,50.9,47.3,54.1,47.9,45.3,93,90,73,30.05,29.97,7,1,7,0.19
2013-4-1,60.1,50.0,45.5,55.1,47.2,43.8,95,90,79,30.15,30.02,5,1,5,0.00
2013-4-2,64.8,51.6,42.5,57.5,46.8,40.3,94,84,65,30.17,30.09,6,1,6,0.00
2013-4-3,70.6,54.5,45.7,57.8,48.3,42.4,91,80,58,30.14,29.98,7,1,7,0.00
2013-4-4,55.8,50.6,46.4,53.1,47.8,43.3,93,90,81,30.09,29.93,8,2,8,0.41
2013-4-5,54.4,49.9,47.2,51.7,47.8,45.6,94,92,89,30.15,30.08,6,1,6,0.12
2013-4-6,57.8,51.0,47.2,54.1,48.0,44.7,94,90,79,30.16,30.09,4,1,4,0.19
2013-4-7,52.7,47.7,41.4,50.0,45.1,39.5,94,91,85,30.13,29.78,7,1,7,0.31
2013-4-8,59.9,45.5,35.8,45.3,38.2,32.9,93,77,47,30.10,29.80,9,2,9,0.01
2013-4-9,67.0,52.4,41.0,50.8,41.9,35.6,83,68,51,30.18,30.09,7,2,7,0.00
2013-4-10,53.5,53.1,52.7,44.7,44.2,43.6,72,72,71,30.19,30.18,2,0,2,0.00